Simultaneous Nadir Overpasses (SNOs) Predictions

Prediction of SNOs between LANDSAT-8 and METOP-A Satellite Orbit:

Table of predicted SNOs for the next 14.0 days since TLE Epoch: 10/10/2016
Index Date (LANDSAT-8) Time (LANDSAT-8) Lat,Lon (LANDSAT-8) SZA (LANDSAT-8 ) Date (METOP-A) Time (METOP-A) Lat,Lon (METOP-A) SZA (METOP-A ) Distance(km) Time Diff (sec)
1 10/10/2016 14:19:37 -81.12,-174.92 89.58 10/10/2016 14:19:29 -81.13,-174.88 89.58 0.92 8
2 10/10/2016 15:09:02 81.15, -6.81 90.51 10/10/2016 15:10:08 81.15, -6.75 90.55 1.04 66
3 10/13/2016 09:04:43 80.68, 78.06 90.55 10/13/2016 09:03:29 80.85, 77.67 90.62 19.64 74
4 10/13/2016 09:53:53 -81.13,-108.42 88.50 10/13/2016 09:53:52 -81.13,-108.56 88.52 2.39 1
5 10/13/2016 10:43:18 81.16, 59.67 91.58 10/13/2016 10:44:31 81.15, 59.55 91.60 2.20 73
6
